Regional Weather Roundup
Issued by NWS

Home | Current Version | Previous Version | Text Only | Print | Product List | Glossary On
Versions: 1 2 3 4 5 6 7 8 9 10 11 12 13 14 15 16 17 18 19 20 21 22 23 24 25 26
000
ASUS42 KTBW 202318
RWRFL
FLORIDA REGIONAL WEATHER ROUNDUP
NATIONAL WEATHER SERVICE TAMPA BAY RUSKIN FL
700 PM EDT THU JUL 20 2017

NOTE: "FAIR" INDICATES FEW OR NO CLOUDS BELOW 12,000 FEET WITH NO
SIGNIFICANT WEATHER AND/OR OBSTRUCTIONS TO VISIBILITY.

FLZ001>010-012>015-112-114-115-210000-
PANHANDLE FLORIDA

CITY           SKY/WX    TMP DP  RH WIND       PRES   REMARKS
PENSACOLA      CLOUDY    81  74  79 S8        30.01R
PENSACOLA NAS  LGT RAIN  78  74  87 SE5       30.00F
MILTON NAS     PTSUNNY   87  75  67 S9        30.01R HX  96
CRESTVIEW      MOSUNNY   88  75  65 S8        30.02R HX  97
DUKE FIELD     PTSUNNY   88  74  64 E9        30.01R THUNDER HX  97
VALPARAISO     PTSUNNY   87  75  68 S5        30.01R HX  96
MARY ESTHER    PTSUNNY   87  76  70 SW3       30.00R HX  97
PANAMA CITY    FAIR      82  76  81 W9        30.00R
TYNDALL AFB    MOSUNNY   88  78  72 SW8       30.03R HX 100
APALACHICOLA   PTSUNNY   86  78  77 W7        30.01R HX  98

STATION/POSITION SKY/WX   TEMP    WIND        PRES    WAVE   SWELL
                          AIR SEA DIR/SP/G            HT/PER HT/PER
                          (F)     (DEG/KT/KT) (MB)    (FT/S) (FT/S)
30.1N   87.6W              87 90  230/ 10/ 12 1015.8    1
29.2N   88.2W              86 87  220/  4/  6 1016.1F   1
28.8N   86.0W              85 89  230/  4/  6 1016.5    1
PANAMA CITY BEAC           82     310/ 13/ 17 1016.5F
TOWER C          NOT AVBL
28.5N   84.5W              85 90  260/  4/  6 1016.4    1/ 7

$$
FLZ011-016>038-118-127-128-134-139-239-210000-
NORTH FLORIDA

CITY           SKY/WX    TMP DP  RH WIND       PRES   REMARKS
MARIANNA       HVY RAIN  83  76  79 NW24G38   30.00R
TALLAHASSEE    PTSUNNY   88  77  69 SW6       30.00S HX 100
PERRY          LGT RAIN  79  75  89 NE3       30.03F
LIVE OAK       MOSUNNY   77  77 100 NW7       30.03F
CROSS CITY     CLOUDY    80  76  86 CALM      30.08R
LAKE CITY      FAIR      81  75  83 CALM      30.04R
GAINESVILLE    TSTM      83  76  79 W7        30.04S
WILLISTON      SUNNY     88  77  70 W6        30.03R HX 100
PALATKA        FAIR      90  73  58 SE10      30.04R HX  98
MAYPORT NAS    MOSUNNY   85  74  69 SE9       30.04R
JACKSONVILLE   PTSUNNY   86  74  67 SE12      30.02S
JAX NAS        PTSUNNY   88  72  58 SE9       30.04R
JAX CECIL      SUNNY     88  73  62 SE9       30.03R HX  96
FERNANDINA BEA FAIR      86  77  74 E8        30.03F HX  97
ST AUGUSTINE   MOSUNNY   84  75  74 SE10      30.06R
PALM COAST     SUNNY     82  75  78 SE6       30.04

STATION/POSITION SKY/WX   TEMP    WIND        PRES    WAVE   SWELL
                          AIR SEA DIR/SP/G            HT/PER HT/PER
                          (F)     (DEG/KT/KT) (MB)    (FT/S) (FT/S)
SHELL POINT      NOT AVBL
KEATON BEACH               85     270/  4/  5 1016.1F
CEDAR KEY                  86     270/  5/  6 1017.1R
FERNANDINA                 85 81  150/  7/ 11 1018.2R
30.7N   81.3W                 84                N/A     2/ 8
MAYPORT                    85 79  140/  6/ 11 1017.8R
31.4N   80.9W              84 83  190/  8/ 10 1016.4    2/ 8   2/ 8
ST AUGUSTINE               82 83  150/ 10/ 11 1017.8R

$$
FLZ040-043>046-052-053-057-058-063-144-210000-
INTERIOR CENTRAL FLORIDA

CITY           SKY/WX    TMP DP  RH WIND       PRES   REMARKS
OCALA          CLOUDY    89  76  65 S8        30.04R HX 100
THE VILLAGES     N/A     81  75  83 SE18      29.97R
LEESBURG       CLOUDY    79  74  84 S18G28    30.08R
SANFORD        CLOUDY    74  71  91 SW6       30.05F
ORLANDO EXEC   LGT RAIN  73  73 100 SW14      30.05F
ORLANDO INTL   TSTM      72  72 100 NW8       30.06F
KISSIMMEE      TSTM      73  72  94 W7        30.06F
WINTER HAVEN   LGT RAIN  76  72  87 NE15      30.09R
LAKELAND       TSTM      73  73 100 NE9G20    30.08R
BARTOW         PTSUNNY   79  70  73 E12G18    30.07R
SEBRING        FAIR      79  73  82 E5        30.05S
OKEECHOBEE     CLOUDY    79  77  94 CALM      30.05F

$$
FLZ041-047-054-059-064-141-147-210000-
EAST CENTRAL FLORIDA

CITY           SKY/WX    TMP DP  RH WIND       PRES   REMARKS
ORMOND BEACH   MOSUNNY   82  75  78 SE6       30.04R
DAYTONA BEACH  CLOUDY    81  76  84 S8        30.06R
DELAND         CLOUDY    77  72  83 S9        30.05R
NEW SMYRNA BEA PTSUNNY   81  75  83 SW12      30.06R
TITUSVILLE     PTSUNNY   75  72  88 VRB6      30.05S
CAPE CANAVERAL CLOUDY    78  73  85 SW6       30.04R
PATRICK AFB    CLOUDY    77  74  89 SW6       30.05S
MELBOURNE      LGT RAIN  77  73  87 N6        30.06S
VERO BEACH     CLOUDY    80  76  87 E3        30.04F
FT PIERCE      PTSUNNY   81  75  82 S5        30.03F
STUART         LGT RAIN  79  73  83 CALM      30.07S

STATION/POSITION SKY/WX   TEMP    WIND        PRES    WAVE   SWELL
                          AIR SEA DIR/SP/G            HT/PER HT/PER
                          (F)     (DEG/KT/KT) (MB)    (FT/S) (FT/S)
28.5N   80.2W              82 83  210/ 10/ 12 1018.6F   2/ 8   2/ 8
28.9N   78.5W              82 85  160/ 10/ 12 1017.0F   3/ 8   2/ 8
TRIDENT PIER               79 84  220/  8/  9 1019.3R
28.4N   80.5W                 83                N/A     2/ 8
27.5N   80.2W                 84                N/A     2/ 8

$$
FLZ050-056-061-142-242-148-248-149-249-151-251-155-255-
160-260-210000-
WEST CENTRAL FLORIDA

CITY           SKY/WX    TMP DP  RH WIND       PRES   REMARKS
CRYSTAL RIVER  FAIR      86  73  66 CALM      30.04R
INVERNESS      FAIR      84  79  84 SE3       30.05R HX  96
BROOKSVILLE    PTSUNNY   88  76  67 N5        30.04R HX  99
CLEARWATER AIR FAIR      86  73  66 NW6       30.02S
ST PETE CLEARW MOSUNNY   90  73  57 N8        30.02R HX  98
TAMPA INTL     PTSUNNY   87  73  62 NE6       30.03R
TAMPA EXEC     CLOUDY    86  77  74 CALM      30.04S HX  97
PLANT CITY     DRIZZLE   79  72  78 E14G25    30.08R
MACDILL AFB    PTSUNNY   87  80  78 NE3       30.02R HX 103
PETER O KNIGHT CLOUDY    90  73  58 NE5       30.04R HX  98
ST PETERSBURG  MOSUNNY   90  73  57 NE5       30.00R HX  98
SARASOTA       MOSUNNY   88  74  63 W9        30.01R HX  96
VENICE         FAIR      88  77  70 W6        30.03R HX 100

STATION/POSITION SKY/WX   TEMP    WIND        PRES    WAVE   SWELL
                          AIR SEA DIR/SP/G            HT/PER HT/PER
                          (F)     (DEG/KT/KT) (MB)    (FT/S) (FT/S)
27.3N   84.2W                 90                N/A     1/ 7
CLEARWATER BEACH           87 89  320/  5/  6 1016.9R
MIDDLE TAMPA BAY           86     310/  7/ 10 1016.8R
VENICE                     87 90  280/  4/  5 1017.1R

$$
FLZ066-069-070-075>078-162-262-165-265-210000-
SOUTHWEST FLORIDA AND KEYS

CITY           SKY/WX    TMP DP  RH WIND       PRES   REMARKS
PUNTA GORDA    MOSUNNY   86  75  69 VRB3      30.05R HX  95
FT MYERS       CLOUDY    88  78  72 SW8       30.02R HX 101
SOUTHWEST INTL MOSUNNY   87  74  64 SE5       30.03S HX  95
NAPLES         MOSUNNY   87  75  67 W5        30.03R HX  96
MARCO ISLAND   SUNNY     88  73  62 SW5       30.04R HX  96
IMMOKALEE      PTSUNNY   86  79  79 N7        30.05R HX  99
MARATHON       MOSUNNY   88  77  69 N5        30.05R HX 100
KEY WEST NAS   MOSUNNY   87  79  76 N8        30.05R HX 101
KEY WEST INTL  CLOUDY    89  78  70 N5        30.05R HX 103

STATION/POSITION SKY/WX   TEMP    WIND        PRES    WAVE   SWELL
                          AIR SEA DIR/SP/G            HT/PER HT/PER
                          (F)     (DEG/KT/KT) (MB)    (FT/S) (FT/S)
NAPLES                        90  230/  4/  6 1017.3R
DRY TORTUGAS               87      20/  4/  4 1017.7R
SAND KEY                   86      70/  1/  2 1018.1R
LONG KEY                   88 92   CALM  /  1 1017.4R
MOLASSES REEF              87 87   CALM  /  1 1017.9R

$$
FLZ067-068-071>074-168-172>174-210000-
SOUTHEAST FLORIDA

CITY           SKY/WX    TMP DP  RH WIND       PRES   REMARKS
W PALM BEACH   LGT RAIN  80  73  79 E5        30.06S
FT LAUDER-EXEC CLOUDY    82  76  81 N3        30.05S
FT LAUDERDALE  CLOUDY    82  78  88 N5        30.04S
POMPANO BEACH  CLOUDY    85  76  74 N3        30.05S
PEMBROKE PINES CLOUDY    86  75  69 CALM      30.07R HX  95
OPA LOCKA      CLOUDY    83  74  74 NE7       30.06R
MIAMI          CLOUDY    88  74  63 CALM      30.05R HX  96
WEST KENDALL   CLOUDY    88  76  67 CALM      30.05R HX  99
HOMESTEAD      PTSUNNY   84  79  84 CALM      30.04R HX  96

STATION/POSITION SKY/WX   TEMP    WIND        PRES    WAVE   SWELL
                          AIR SEA DIR/SP/G            HT/PER HT/PER
                          (F)     (DEG/KT/KT) (MB)    (FT/S) (FT/S)
PORT EVERGLADES            84     350/  2/  3 1017.6R
VIRGINIA KEY                      140/  1/  3 1017.1R
LAKE WORTH                         CALM  /  5   N/A
FOWEY ROCKS                86 88  150/  6/  7 1018.3R
SETTLEMENT POINT           84     110/  7/  9 1018.3S

$$





USA.gov is the U.S. government's official web portal to all federal, state and local government web resources and services.